CamptonHillsWeather.com

Find the Weather for any City, State  
or Zipcode, or Country:

Campton Hills, IL Weather
Local Radar

Local Radar

Graphs, Details
Graphs and Gauges
Detailed Weather
Detailed Reports
Ajax Version (old)
Central Kane Co Summary
Davis Current Weather Graphs
Davis 24 Hour Weather History

CW3778 Data

Weather Underground
Maps
Temperature
Heat Index
Windchill
Humidity
Radar
Dew Point
Wind
Visibility
Visible Satellite
Satellite
Fronts
Snow Depth
Jet Stream
Flight Rules
Forecast Maps
Temperature Forecast
Maximum Temperature Forecast
Minimum Temperature Forecast
Dewpoint Forecast
Prevalent Weather
12Hr Probability of Precip.
Sky Cover
Health Maps
UV Forecast
Air Quality
Peak Air Quality Index
Weather Station
Davis Instruments Vantage Pro
Current Conditions [Select Refresh to Update]

Updated: 12:56pm on 8/30/16

(location)
Currently:
68.5F

Clear
Clear

High: 83.8 F< 
(3:20am
Low: 68.4 F 
(11:57am)
Wind: N 0 mph
Calm
Gust: 1 mph
Today's High Wind: 12 mph (5:02am)
Humidity: 97%
Pressure: 30.03 in  (Steady
Pressure Rate: -0.003 in/hr
Dew Point: 67.6F
Wind Chill: 68.5 F
Heat Index (feels like): 75.2 F
Comfort Level: Comfortable
Temperature Rate:  -0.13F/hr
 
5 Day Forecast
 
Wed Thu Fri Sat Sun
Clear Clear Clear Clear Clear
Hazy Mostly Cloudy Clear Partly Cloudy Mostly Cloudy
77 72 75 77 82
58 55 50 58 65

Records and Normals
 
Temperature Forecast Normal Record
High 77 81 91
(2000)
Low 58 59 43
(2009)
 
Links
 
 
Weather Advisories
Full Advisory Text...
Weather Map

Web Cam

Almanac
 
Sunrise:  
6:20am
Moonrise: 
4:28am

Moon Phase:
3%

Sunset: 
7:32pm
Moonset:  
6:34pm
 Star Chart...
Rainfall Totals
Hourly Rain 0.00 in
Daily Rain: 0.03 in
Monthly Rain: 3.25 in
Yearly Rain: 24.36 in
Normal Rain, month to date: 3.12 in
Normal Rain, year to date: 26.26 in
Link to Village of Campton Hills Map

Link to Counties of Illinois Map

Local Weather Exchange Network
Station ID City 
(Click for Map Location)
Neighborhood 
(Click for History)
Last Update (Date & Time) Temperature
 ()
Dew
Point ()
Humidity 
(%)
Wind 
(mph)
from the Wind Gust 
(mph) 
Pressure(in) Hourly
Rain(in)
KILSAINT20 Saint Charles Knoll Creek Drive 08/31 00:47:24 71.2 66.0 82 0 North 0 30.01 0.00
KILSAINT17 Saint Charles Glen Oak Lane 08/31 00:46:25 71.4 67.0 86 0 North 0 30.10 0.00
KILSAINT15 Saint Charles Shoreline Drive 08/31 00:47:25 71.8 65.0 78 0 North 0 30.14 0.00
KILSAINT10 Saint Charles Saint Charles Burr Road 08/31 00:51:48 68.4 68.0 98 0 South 0 29.00 0.00
KILSTCHA10 St. Charles Hunt Club 08/31 00:51:34 69.6 62.0 78 0 SSW 0 29.60 0.00
KILWAYNE4 Wayne Hampton Course 08/31 00:51:14 71.1 69.0 94 0 North 0 30.15 0.00
KILCAMPT3 Campton Hills Campton Hills 08/31 00:35:22 68.8 69.0 100 0 North 0 30.03 0.00
KILSAINT6 Saint Charles 3 Lakes 08/31 00:50:08 68.5 66.0 91 0 NNE 0 29.76 0.00
KILSOUTH10 South Elgin East Thornwood Drive 08/31 00:47:23 71.1 66.0 84 0 North 0 29.07 0.00
KILSAINT9 Saint Charles Fox Chase 08/31 00:51:47 70.7 70.0 98 0 WSW 0 30.07 0.00
KILGENEV6 Geneva Dover Ridge 08/31 00:51:40 69.7 68.0 93 0 WNW 0 30.00 0.00
KILELBUR18 Elburn Elodie Drive 08/31 00:50:56 70.7 68.0 91 0 North 0 30.04 0.00
KILGENEV10 Geneva Southampton Drive 08/31 00:47:00 68.9 69.0 99 0 North 1 30.04 0.00
KILSTCHA8 St. Charles Ronzheimer Ave. & S. Tyler Rd. 08/31 00:52:10 70.1 68.0 92 0 NE 0 30.00 0.00
KILGENEV18 Geneva downtown 08/31 00:50:51 68.6 67.0 94 0 West 0 30.00 0.00
KILGENEV3 Geneva Mill Creek (Blackberry Way) 08/31 00:51:44 68.5 67.0 96 0 NW 0 30.02 0.00
KILSTCHA1 St Charles CamptonHillsWeather.com Central Kane County 08/31 00:20:01 68.4 68.0 97 0 North 2 30.04 0.00
KILGENEV17 Geneva Geneva 08/31 00:47:12 67.8 68.0 99 0 North 0 30.04 0.00
KILGENEV8 Geneva Alexander Drive 08/31 00:51:18 38.7 35.0 86 0 North 0 29.73 0.00
KILWAYNE7 Wayne Honey Hill 08/31 00:31:33 68.6 68.0 99 0 North 0 29.58 0.00
KILGENEV2 Geneva Mill Creek 08/31 00:44:18 69.2 -36.0 0 0 SW 0 29.97 0.00
KILBATAV13 Batavia Blackhawk Dr, Batavia 08/31 00:52:09 70.5 68.0 90 0 SSE 0 30.08 0.00
KILELBUR23 Elburn Elburn, IL 08/31 00:43:25 68.2 67.0 97 0 West 0 29.98 0.00
KILELBUR11 Elburn Cheval de Selle 08/31 00:49:16 68.4 66.0 93 1 WSW 0 30.02 0.00
KILBATAV7 Batavia Charleston Street 08/31 00:52:06 70.7 70.0 97 0 North 0 30.12 0.00
KILBATAV16 Batavia Park Street 08/31 00:51:56 69.8 67.0 92 0 West 0 30.00 0.00
KILELBUR13 Elburn Hicks Drive 08/31 00:50:21 78.6 61.0 55 0 North 0 29.91 0.00
KILBATAV6 Batavia Tri Cities on the Fox River 2 08/31 00:30:13 70.3 66.0 86 0 SE 0 30.11 0.00
KILBATAV1 Batavia Tri-Cities on the Fox River 08/31 00:51:27 71.6 67.0 85 0 NNW 0 30.03 0.00
KILELGIN16 Elgin Providence Subdivision 08/31 00:51:55 69.0 65.0 88 2 NNW 0 29.05 0.00
KILELBUR10 Elburn Prairie Valley North 08/31 00:51:17 67.3 65.0 93 3 West 4 29.84 0.00
KILELGIN20 Elgin Williamsburg Drive 08/31 00:47:09 72.3 68.0 85 0 North 0 30.04 0.00
KILELBUR15 Elburn East North Street 08/31 00:47:16 74.1 67.0 77 0 North 0 29.89 0.00
KILBATAV10 Batavia Deerpath Road 08/31 00:51:20 71.6 69.0 92 0 North 0 30.04 0.00
KILELBUR5 Elburn Prairie Highlands 08/31 00:50:15 69.1 68.0 96 0 NW 4 30.02 0.00
KDPA Chicago DuPage Official Station 08/30 23:52:00 71.0 66.0 84 4 WNW --- 30.05 ---
KARR Aurora Official Station 08/30 23:52:00 70.0 67.0 90 0 North --- 30.06 ---
KDKB DeKalb Official Station 08/31 00:35:00 68.0 68.0 96 6 WNW --- 30.08 ---
KORD Chicago Official Station 08/30 23:51:00 72.0 67.0 84 6 NW --- 30.04 ---
Full Advisory Text
No Warnings

Ambient Weather and Weather Underground
 Never base important decisions on this or any weather information obtained from the Internet
Updated Automatically by Ambient Weather's Virtual Weather Station  V13.01